User: anonymous   Login
Location: Peebles
(55.6412°N, 3.1714°W)
Time: 09:04:53
(UTC+01:00)
Language:

COSMOS 2251 DEB - Orbit

View from above orbital plane
View from above orbital plane
View from above satellite
View from above satellite

Ground track
Ground track

The orbit data is extracted from the following two-line orbital elements,

1 33819U 93036BL  22176.83485911  .00000961  00000-0  39889-3 0  9998
2 33819  74.1831 324.7615 0097523 179.1051 301.8041 14.25211913694227
Epoch (UTC): 25 June 2022 20:02:11
Eccentricity: 0.0097523
inclination: 74.1831°
perigee height: 738 km
apogee height: 878 km
right ascension of ascending node: 324.7615°
argument of perigee: 179.1051°
revolutions per day: 14.25211913
mean anomaly at epoch: 301.8041°
orbit number at epoch: 69422

The dashed part of the orbit path shows where the satellite is in the earth's shadow,  

DLR